Location: Malanoce
(44.2500°N, 7.4667°E)
Time: 21:06:02
(UTC+00:00)

UNK - Pass Details

Date: 17 November 2025
Orbit: 655 x 672 km, 98.4° (Epoch: 11 December)

Event Time Altitude Azimuth Distance (km) Brightness Sun altitude
Rises 16:29:22 0° 16° (NNE) 3,032 6.7 -5.4°
Reaches altitude 10° 16:31:38 10° 20° (NNE) 2,114 5.9 -5.8°
Maximum altitude 16:36:13 63° 101° (ESE) 752 3.8 -6.6°
Drops below altitude 10° 16:40:45 10° 183° (S) 2,095 6.6 -7.3°
Sets 16:43:00 0° 187° (S) 3,002 7.5 -7.7°
